| time (UTC) | temp F | wind direction | speed knots | gust knots | rain 1hr in | rain 24hr in | rain mn in | humidity % | barometer mb |
| 20260507021115 | 63 | 297 | 1.7 | 1.7 | 0.00 | 0.08 | 0.08 | 90 | 1008.2 |
| 20260507020613 | 63 | 195 | 0.0 | 0.9 | 0.00 | 0.08 | 0.08 | 90 | 1008.2 |
| 20260507020109 | 63 | 175 | 0.0 | 0.0 | 0.05 | 0.08 | 0.08 | 89 | 1008.2 |
| 20260507015608 | 64 | 50 | 0.9 | 1.7 | 0.12 | 0.08 | 0.08 | 88 | 1008.3 |
| 20260507015105 | 65 | 207 | 1.7 | 1.7 | 0.07 | 0.07 | 0.07 | 85 | 1008.3 |
| 20260507014601 | 66 | 26 | 1.7 | 1.7 | 0.00 | 0.06 | 0.06 | 82 | 1008.0 |
| 20260507014057 | 66 | 13 | 2.6 | 4.3 | 0.00 | 0.06 | 0.06 | 81 | 1007.7 |
| 20260507013554 | 66 | 197 | 0.0 | 0.0 | 0.00 | 0.06 | 0.06 | 81 | 1007.5 |
| 20260507013051 | 66 | 198 | 0.9 | 0.9 | 0.00 | 0.06 | 0.06 | 81 | 1007.7 |
| 20260507012548 | 66 | 181 | 0.9 | 1.7 | 0.00 | 0.06 | 0.06 | 81 | 1007.7 |
| 20260507012038 | 66 | 245 | 0.9 | 0.9 | 0.00 | 0.06 | 0.06 | 81 | 1007.9 |
| 20260507011536 | 66 | 204 | 0.0 | 0.0 | 0.00 | 0.06 | 0.06 | 82 | 1007.7 |
| 20260507011032 | 66 | 206 | 0.0 | 0.0 | 0.00 | 0.06 | 0.06 | 81 | 1007.6 |
| 20260507010531 | 66 | 205 | 0.0 | 0.0 | 0.00 | 0.06 | 0.06 | 81 | 1007.6 |
| 20260507010023 | 66 | 205 | 0.0 | 0.0 | 0.00 | 0.06 | 0.06 | 81 | 1007.4 |
| 20260507005520 | 66 | 213 | 0.0 | 0.0 | 0.00 | 0.06 | 0.06 | 81 | 1007.3 |
| 20260507005016 | 66 | 210 | 0.0 | 0.0 | 0.00 | 0.06 | 0.06 | 81 | 1007.3 |
| 20260507004514 | 66 | 264 | 0.9 | 0.9 | 0.00 | 0.06 | 0.06 | 82 | 1007.5 |
| 20260507004012 | 66 | 195 | 0.0 | 0.0 | 0.00 | 0.06 | 0.06 | 82 | 1007.3 |
| 20260507003507 | 66 | 202 | 0.0 | 0.0 | 0.00 | 0.06 | 0.06 | 82 | 1007.2 |
| 20260507003001 | 66 | 202 | 0.0 | 0.0 | 0.00 | 0.06 | 0.06 | 81 | 1007.3 |
| 20260507002458 | 66 | 203 | 0.0 | 0.0 | 0.00 | 0.06 | 0.06 | 81 | 1007.2 |
| 20260507001949 | 66 | 201 | 0.0 | 0.0 | 0.00 | 0.06 | 0.06 | 81 | 1007.1 |
| 20260507001446 | 66 | 196 | 0.0 | 0.0 | 0.00 | 0.06 | 0.06 | 81 | 1007.1 |
| 20260507000943 | 66 | 184 | 0.0 | 0.0 | 0.00 | 0.06 | 0.06 | 81 | 1007.1 |
| 20260507000438 | 67 | 197 | 0.0 | 0.0 | 0.00 | 0.06 | 0.06 | 81 | 1007.1 |
| 20260506235934 | 67 | 201 | 0.0 | 0.0 | 0.00 | 0.06 | 0.06 | 80 | 1007.1 |
| 20260506235432 | 67 | 214 | 0.0 | 0.0 | 0.00 | 0.06 | 0.06 | 80 | 1007.2 |
| 20260506234927 | 67 | 206 | 0.0 | 0.0 | 0.00 | 0.06 | 0.06 | 80 | 1007.3 |
| 20260506234425 | 67 | 188 | 0.0 | 0.0 | 0.00 | 0.06 | 0.06 | 80 | 1007.1 |
| 20260506233923 | 67 | 207 | 0.0 | 0.0 | 0.00 | 0.06 | 0.06 | 80 | 1006.9 |
| 20260506233419 | 67 | 202 | 0.0 | 0.0 | 0.00 | 0.06 | 0.06 | 79 | 1006.9 |
| 20260506232916 | 67 | 199 | 0.0 | 0.0 | 0.00 | 0.06 | 0.06 | 79 | 1007.2 |
| 20260506232412 | 67 | 214 | 0.0 | 0.0 | 0.00 | 0.06 | 0.06 | 79 | 1007.1 |
| 20260506231908 | 67 | 309 | 0.9 | 1.7 | 0.00 | 0.06 | 0.06 | 79 | 1007.2 |
| 20260506231406 | 67 | 208 | 0.0 | 0.0 | 0.00 | 0.06 | 0.06 | 79 | 1007.2 |
| 20260506230903 | 67 | 209 | 0.0 | 0.0 | 0.00 | 0.06 | 0.06 | 79 | 1007.1 |
| 20260506230359 | 68 | 238 | 0.9 | 0.9 | 0.00 | 0.06 | 0.06 | 79 | 1006.8 |
| 20260506225855 | 67 | 221 | 0.9 | 0.9 | 0.00 | 0.06 | 0.06 | 80 | 1006.9 |
| 20260506225353 | 67 | 210 | 0.0 | 0.0 | 0.00 | 0.06 | 0.06 | 79 | 1007.0 |
| 20260506224850 | 67 | 212 | 0.9 | 0.9 | 0.00 | 0.06 | 0.06 | 80 | 1007.0 |
| 20260506224347 | 67 | 209 | 1.7 | 1.7 | 0.00 | 0.06 | 0.06 | 80 | 1006.6 |
| 20260506223843 | 67 | 210 | 0.0 | 0.9 | 0.00 | 0.06 | 0.06 | 80 | 1006.7 |
| 20260506223338 | 67 | 201 | 0.9 | 0.9 | 0.00 | 0.06 | 0.06 | 80 | 1006.8 |
| 20260506222836 | 67 | 223 | 0.0 | 0.0 | 0.00 | 0.06 | 0.06 | 80 | 1006.9 |
| 20260506222332 | 66 | 211 | 0.0 | 0.0 | 0.00 | 0.06 | 0.06 | 80 | 1006.9 |
| 20260506221830 | 66 | 254 | 1.7 | 1.7 | 0.00 | 0.06 | 0.06 | 80 | 1006.9 |
| 20260506221327 | 66 | 191 | 0.0 | 0.9 | 0.00 | 0.06 | 0.06 | 81 | 1006.9 |
| 20260506220825 | 66 | 231 | 0.9 | 0.9 | 0.00 | 0.06 | 0.06 | 80 | 1006.9 |
| 20260506220320 | 66 | 272 | 2.6 | 2.6 | 0.00 | 0.06 | 0.06 | 80 | 1006.8 |
| 20260506215817 | 66 | 230 | 0.0 | 0.9 | 0.00 | 0.06 | 0.06 | 81 | 1006.5 |
| 20260506215313 | 66 | 225 | 0.9 | 0.9 | 0.00 | 0.06 | 0.06 | 81 | 1006.7 |
| 20260506214809 | 66 | 193 | 0.0 | 0.0 | 0.00 | 0.06 | 0.06 | 81 | 1006.9 |
| 20260506214306 | 66 | 175 | 0.9 | 0.9 | 0.00 | 0.06 | 0.06 | 81 | 1006.7 |
| 20260506213804 | 66 | 180 | 0.9 | 1.7 | 0.00 | 0.06 | 0.06 | 81 | 1006.5 |
| 20260506213301 | 66 | 271 | 1.7 | 1.7 | 0.00 | 0.06 | 0.06 | 81 | 1006.8 |
| 20260506212758 | 66 | 255 | 0.9 | 1.7 | 0.00 | 0.06 | 0.06 | 81 | 1006.5 |
| 20260506212254 | 66 | 192 | 0.0 | 0.0 | 0.00 | 0.06 | 0.06 | 81 | 1006.7 |
| 20260506211749 | 66 | 212 | 2.6 | 4.3 | 0.00 | 0.06 | 0.06 | 81 | 1006.7 |
| 20260506211246 | 66 | 131 | 0.9 | 1.7 | 0.00 | 0.06 | 0.06 | 81 | 1006.7 |
| 20260506210743 | 66 | 345 | 3.5 | 5.2 | 0.00 | 0.06 | 0.06 | 81 | 1006.5 |
| 20260506210239 | 66 | 194 | 2.6 | 2.6 | 0.00 | 0.06 | 0.06 | 81 | 1006.4 |
| 20260506205736 | 66 | 211 | 0.0 | 0.9 | 0.00 | 0.06 | 0.06 | 81 | 1006.5 |
| 20260506205232 | 66 | 199 | 0.0 | 0.9 | 0.00 | 0.06 | 0.06 | 81 | 1006.3 |
| 20260506204729 | 66 | 212 | 2.6 | 2.6 | 0.00 | 0.06 | 0.06 | 81 | 1006.4 |
| 20260506204227 | 66 | 196 | 3.5 | 4.3 | 0.00 | 0.06 | 0.06 | 82 | 1006.2 |
| 20260506203724 | 66 | 266 | 2.6 | 2.6 | 0.00 | 0.06 | 0.06 | 83 | 1006.1 |
| 20260506203221 | 66 | 203 | 0.9 | 1.7 | 0.00 | 0.06 | 0.06 | 84 | 1006.3 |
| 20260506202719 | 65 | 186 | 0.9 | 0.9 | 0.00 | 0.06 | 0.06 | 84 | 1006.2 |
| 20260506202215 | 65 | 169 | 0.9 | 1.7 | 0.00 | 0.06 | 0.06 | 85 | 1006.3 |
| 20260506201712 | 65 | 196 | 0.0 | 0.0 | 0.00 | 0.06 | 0.06 | 86 | 1006.3 |
| 20260506201208 | 64 | 269 | 3.5 | 7.0 | 0.00 | 0.06 | 0.06 | 86 | 1006.1 |
| 20260506200700 | 64 | 202 | 0.0 | 0.0 | 0.00 | 0.06 | 0.06 | 87 | 1006.3 |
| 20260506200157 | 64 | 217 | 0.9 | 1.7 | 0.00 | 0.06 | 0.06 | 87 | 1006.5 |
| 20260506195653 | 64 | 253 | 1.7 | 1.7 | 0.00 | 0.06 | 0.06 | 87 | 1006.5 |
| 20260506195149 | 63 | 205 | 0.0 | 0.0 | 0.00 | 0.06 | 0.06 | 87 | 1006.4 |
| 20260506194647 | 63 | 305 | 2.6 | 4.3 | 0.00 | 0.06 | 0.06 | 87 | 1006.6 |
| 20260506194143 | 64 | 274 | 3.5 | 6.1 | 0.00 | 0.06 | 0.06 | 87 | 1006.8 |
| 20260506193641 | 64 | 182 | 0.9 | 0.9 | 0.00 | 0.06 | 0.06 | 87 | 1006.9 |
| 20260506193138 | 64 | 200 | 0.0 | 0.9 | 0.00 | 0.06 | 0.06 | 86 | 1007.0 |
| 20260506192634 | 64 | 304 | 7.8 | 11.3 | 0.00 | 0.06 | 0.06 | 85 | 1007.1 |
| 20260506192130 | 63 | 226 | 1.7 | 2.6 | 0.00 | 0.06 | 0.06 | 87 | 1007.0 |
| 20260506191628 | 63 | 271 | 1.7 | 2.6 | 0.00 | 0.06 | 0.06 | 89 | 1007.0 |
| 20260506191123 | 63 | 217 | 0.0 | 0.9 | 0.00 | 0.06 | 0.06 | 89 | 1007.0 |
| 20260506190621 | 63 | 236 | 0.9 | 1.7 | 0.00 | 0.06 | 0.06 | 90 | 1007.3 |
| 20260506190118 | 63 | 251 | 0.0 | 0.9 | 0.00 | 0.06 | 0.06 | 90 | 1007.0 |
| 20260506185615 | 63 | 169 | 1.7 | 2.6 | 0.00 | 0.06 | 0.06 | 90 | 1007.2 |
| 20260506185111 | 63 | 208 | 0.9 | 0.9 | 0.00 | 0.06 | 0.06 | 89 | 1007.1 |
| 20260506184609 | 63 | 225 | 0.9 | 0.9 | 0.00 | 0.06 | 0.06 | 89 | 1007.3 |
| 20260506184106 | 63 | 233 | 1.7 | 1.7 | 0.00 | 0.06 | 0.06 | 89 | 1007.2 |
| 20260506183603 | 63 | 220 | 2.6 | 4.3 | 0.00 | 0.06 | 0.06 | 88 | 1007.3 |
| 20260506183058 | 63 | 210 | 0.9 | 0.9 | 0.00 | 0.06 | 0.06 | 88 | 1007.2 |
| 20260506182556 | 63 | 183 | 4.3 | 7.8 | 0.00 | 0.06 | 0.06 | 87 | 1007.3 |
| 20260506182053 | 64 | 201 | 1.7 | 1.7 | 0.00 | 0.06 | 0.06 | 86 | 1007.3 |
| 20260506181551 | 64 | 203 | 1.7 | 2.6 | 0.00 | 0.06 | 0.06 | 84 | 1007.3 |
| 20260506181047 | 65 | 260 | 4.3 | 7.0 | 0.00 | 0.06 | 0.06 | 82 | 1007.4 |
| 20260506180544 | 65 | 173 | 2.6 | 4.3 | 0.00 | 0.06 | 0.06 | 81 | 1007.2 |
| 20260506180041 | 65 | 249 | 0.9 | 1.7 | 0.00 | 0.06 | 0.06 | 83 | 1007.5 |
| 20260506175537 | 65 | 274 | 0.9 | 1.7 | 0.00 | 0.06 | 0.06 | 86 | 1007.5 |
| 20260506175033 | 65 | 211 | 0.0 | 0.0 | 0.00 | 0.06 | 0.06 | 86 | 1007.5 |
| 20260506174532 | 65 | 262 | 0.0 | 0.0 | 0.00 | 0.06 | 0.06 | 86 | 1007.5 |
| 20260506174028 | 65 | 209 | 0.0 | 0.9 | 0.00 | 0.06 | 0.06 | 86 | 1007.4 |
| 20260506173526 | 65 | 234 | 1.7 | 1.7 | 0.00 | 0.06 | 0.06 | 86 | 1007.5 |
| 20260506173022 | 65 | 198 | 0.0 | 0.9 | 0.00 | 0.06 | 0.06 | 85 | 1007.2 |
| 20260506172520 | 65 | 198 | 0.9 | 0.9 | 0.00 | 0.06 | 0.06 | 86 | 1007.3 |
| 20260506172016 | 65 | 203 | 1.7 | 1.7 | 0.00 | 0.06 | 0.06 | 86 | 1007.2 |
| 20260506171513 | 64 | 168 | 0.0 | 0.9 | 0.05 | 0.06 | 0.06 | 88 | 1007.4 |
| 20260506171010 | 64 | 183 | 1.7 | 1.7 | 0.05 | 0.06 | 0.06 | 88 | 1007.4 |
| 20260506170507 | 64 | 190 | 2.6 | 2.6 | 0.00 | 0.05 | 0.05 | 88 | 1007.6 |
| 20260506170000 | 64 | 192 | 1.7 | 1.7 | 0.00 | 0.05 | 0.05 | 88 | 1007.4 |
| 20260506165458 | 64 | 199 | 0.0 | 0.9 | 0.00 | 0.05 | 0.05 | 88 | 1007.9 |
| 20260506164954 | 64 | 182 | 2.6 | 4.3 | 0.07 | 0.05 | 0.05 | 87 | 1007.9 |
| 20260506164451 | 64 | 193 | 0.0 | 0.0 | 0.07 | 0.05 | 0.05 | 88 | 1008.3 |
| 20260506163949 | 64 | 185 | 0.9 | 1.7 | 0.00 | 0.04 | 0.04 | 87 | 1008.6 |
| 20260506163443 | 64 | 198 | 0.0 | 0.9 | 0.05 | 0.04 | 0.04 | 87 | 1008.6 |
| 20260506162938 | 64 | 185 | 0.9 | 1.7 | 0.05 | 0.04 | 0.04 | 87 | 1008.8 |
| 20260506162436 | 64 | 203 | 0.0 | 0.0 | 0.00 | 0.03 | 0.03 | 86 | 1008.6 |
| 20260506161933 | 64 | 174 | 0.9 | 0.9 | 0.07 | 0.03 | 0.03 | 85 | 1009.0 |
| 20260506161431 | 64 | 208 | 0.0 | 0.0 | 0.14 | 0.03 | 0.03 | 84 | 1008.7 |
| 20260506160923 | 64 | 174 | 0.9 | 0.9 | 0.07 | 0.02 | 0.02 | 83 | 1009.0 |
| 20260506160420 | 65 | 227 | 0.9 | 1.7 | 0.12 | 0.02 | 0.02 | 81 | 1009.2 |
| 20260506155918 | 66 | 197 | 0.0 | 0.0 | 0.05 | 0.01 | 0.01 | 79 | 1008.9 |
| 20260506155414 | 67 | 223 | 0.9 | 0.9 | 0.00 | 0.00 | 0.00 | 77 | 1008.9 |
| 20260506153537 | 68 | 204 | 0.9 | 1.7 | 0.00 | 0.00 | 0.00 | 69 | 1008.7 |
| 20260506153034 | 69 | 211 | 1.7 | 1.7 | 0.00 | 0.00 | 0.00 | 68 | 1009.0 |
| 20260506152531 | 69 | 198 | 2.6 | 4.3 | 0.00 | 0.00 | 0.00 | 66 | 1008.9 |
| 20260506152029 | 69 | 287 | 1.7 | 2.6 | 0.00 | 0.00 | 0.00 | 67 | 1008.8 |
| 20260506151527 | 69 | 252 | 0.9 | 1.7 | 0.00 | 0.00 | 0.00 | 67 | 1008.7 |
| 20260506151024 | 69 | 197 | 0.0 | 0.9 | 0.00 | 0.00 | 0.00 | 67 | 1008.8 |
| 20260506150520 | 69 | 147 | 1.7 | 2.6 | 0.00 | 0.00 | 0.00 | 65 | 1009.2 |
| 20260506150017 | 69 | 317 | 1.7 | 1.7 | 0.00 | 0.00 | 0.00 | 65 | 1008.9 |
| 20260506145514 | 69 | 142 | 0.9 | 1.7 | 0.00 | 0.00 | 0.00 | 65 | 1009.1 |
| 20260506145011 | 69 | 253 | 2.6 | 4.3 | 0.00 | 0.00 | 0.00 | 64 | 1009.1 |
| 20260506144508 | 69 | 151 | 2.6 | 4.3 | 0.00 | 0.00 | 0.00 | 65 | 1009.1 |
| 20260506144005 | 70 | 217 | 0.9 | 0.9 | 0.00 | 0.00 | 0.00 | 65 | 1009.1 |
| 20260506143503 | 70 | 194 | 0.9 | 1.7 | 0.00 | 0.00 | 0.00 | 64 | 1009.1 |
| 20260506143001 | 70 | 280 | 4.3 | 6.1 | 0.00 | 0.00 | 0.00 | 64 | 1009.2 |
| 20260506142458 | 70 | 254 | 5.2 | 7.0 | 0.00 | 0.00 | 0.00 | 64 | 1009.1 |
| 20260506141956 | 70 | 242 | 1.7 | 1.7 | 0.00 | 0.00 | 0.00 | 65 | 1008.8 |
| 20260506141454 | 70 | 220 | 0.9 | 0.9 | 0.00 | 0.00 | 0.00 | 66 | 1008.8 |
| 20260506140952 | 69 | 208 | 0.9 | 1.7 | 0.00 | 0.00 | 0.00 | 66 | 1008.9 |
| 20260506140449 | 69 | 239 | 1.7 | 1.7 | 0.00 | 0.00 | 0.00 | 66 | 1008.8 |
| 20260506135945 | 69 | 312 | 0.9 | 1.7 | 0.00 | 0.00 | 0.00 | 66 | 1008.7 |
| 20260506135443 | 69 | 227 | 4.3 | 6.1 | 0.00 | 0.00 | 0.00 | 65 | 1008.9 |
| 20260506134938 | 69 | 196 | 1.7 | 2.6 | 0.00 | 0.00 | 0.00 | 66 | 1009.1 |
| 20260506134435 | 69 | 260 | 3.5 | 6.1 | 0.00 | 0.00 | 0.00 | 65 | 1008.6 |
| 20260506133932 | 69 | 187 | 1.7 | 1.7 | 0.00 | 0.00 | 0.00 | 66 | 1008.9 |
| 20260506133429 | 69 | 266 | 0.9 | 1.7 | 0.00 | 0.00 | 0.00 | 66 | 1009.3 |
| 20260506132926 | 69 | 218 | 2.6 | 4.3 | 0.00 | 0.00 | 0.00 | 66 | 1009.1 |
| 20260506132423 | 69 | 158 | 5.2 | 6.1 | 0.00 | 0.00 | 0.00 | 65 | 1009.1 |
| 20260506131920 | 69 | 199 | 2.6 | 5.2 | 0.00 | 0.00 | 0.00 | 66 | 1009.4 |
| 20260506131417 | 69 | 197 | 0.9 | 0.9 | 0.00 | 0.00 | 0.00 | 67 | 1009.1 |
| 20260506130914 | 68 | 197 | 3.5 | 4.3 | 0.00 | 0.00 | 0.00 | 68 | 1009.0 |
| 20260506130410 | 68 | 220 | 2.6 | 2.6 | 0.00 | 0.00 | 0.00 | 68 | 1009.1 |
| 20260506125908 | 68 | 159 | 0.9 | 1.7 | 0.00 | 0.00 | 0.00 | 68 | 1009.0 |
| 20260506125406 | 68 | 207 | 2.6 | 2.6 | 0.00 | 0.00 | 0.00 | 68 | 1009.0 |
| 20260506124904 | 68 | 214 | 2.6 | 4.3 | 0.00 | 0.00 | 0.00 | 68 | 1009.0 |
| 20260506124401 | 68 | 198 | 2.6 | 2.6 | 0.00 | 0.00 | 0.00 | 68 | 1008.9 |
| 20260506123859 | 68 | 239 | 5.2 | 6.1 | 0.00 | 0.00 | 0.00 | 68 | 1008.8 |
| 20260506123357 | 67 | 231 | 2.6 | 2.6 | 0.00 | 0.00 | 0.00 | 69 | 1009.0 |
| 20260506122854 | 68 | 244 | 0.9 | 0.9 | 0.00 | 0.00 | 0.00 | 69 | 1009.0 |
| 20260506122350 | 67 | 210 | 0.0 | 0.9 | 0.00 | 0.00 | 0.00 | 70 | 1009.0 |
| 20260506121849 | 66 | 278 | 3.5 | 6.1 | 0.00 | 0.00 | 0.00 | 70 | 1009.0 |
| 20260506121346 | 66 | 230 | 1.7 | 2.6 | 0.00 | 0.00 | 0.00 | 71 | 1009.1 |
| 20260506120843 | 66 | 196 | 2.6 | 2.6 | 0.00 | 0.00 | 0.00 | 71 | 1009.3 |
| 20260506120340 | 66 | 219 | 0.9 | 0.9 | 0.00 | 0.00 | 0.00 | 71 | 1009.0 |
| 20260506115837 | 66 | 216 | 7.0 | 8.7 | 0.00 | 0.00 | 0.00 | 71 | 1009.3 |
| 20260506115336 | 66 | 198 | 1.7 | 2.6 | 0.00 | 0.00 | 0.00 | 72 | 1009.2 |
| 20260506114833 | 66 | 209 | 1.7 | 1.7 | 0.00 | 0.00 | 0.00 | 72 | 1009.5 |
| 20260506114331 | 66 | 206 | 0.9 | 1.7 | 0.00 | 0.00 | 0.00 | 73 | 1009.4 |
| 20260506113830 | 66 | 295 | 0.9 | 0.9 | 0.00 | 0.00 | 0.00 | 72 | 1009.3 |
| 20260506113326 | 66 | 175 | 2.6 | 4.3 | 0.00 | 0.00 | 0.00 | 72 | 1009.1 |
| 20260506112823 | 66 | 192 | 1.7 | 1.7 | 0.00 | 0.00 | 0.00 | 72 | 1009.0 |
| 20260506112320 | 65 | 289 | 0.9 | 2.6 | 0.00 | 0.00 | 0.00 | 73 | 1009.1 |
| 20260506111818 | 65 | 320 | 2.6 | 4.3 | 0.00 | 0.00 | 0.00 | 75 | 1009.4 |
| 20260506111316 | 65 | 209 | 1.7 | 2.6 | 0.00 | 0.00 | 0.00 | 75 | 1009.4 |
| 20260506110813 | 64 | 208 | 0.0 | 0.9 | 0.00 | 0.00 | 0.00 | 75 | 1009.4 |
| 20260506110310 | 64 | 76 | 1.7 | 2.6 | 0.00 | 0.00 | 0.00 | 75 | 1009.3 |
| 20260506105806 | 64 | 284 | 1.7 | 1.7 | 0.00 | 0.00 | 0.00 | 76 | 1009.2 |
| 20260506105305 | 64 | 187 | 1.7 | 1.7 | 0.00 | 0.00 | 0.00 | 76 | 1009.1 |
| 20260506104801 | 64 | 194 | 0.9 | 1.7 | 0.00 | 0.00 | 0.00 | 76 | 1008.9 |
| 20260506104258 | 64 | 233 | 0.9 | 1.7 | 0.00 | 0.00 | 0.00 | 77 | 1009.0 |
| 20260506103756 | 63 | 166 | 2.6 | 4.3 | 0.00 | 0.00 | 0.00 | 78 | 1009.0 |
| 20260506103253 | 63 | 196 | 0.9 | 0.9 | 0.00 | 0.00 | 0.00 | 78 | 1009.0 |
| 20260506102750 | 63 | 198 | 0.9 | 1.7 | 0.00 | 0.00 | 0.00 | 78 | 1009.2 |
| 20260506102248 | 63 | 211 | 0.0 | 0.9 | 0.00 | 0.00 | 0.00 | 78 | 1009.4 |
| 20260506101745 | 64 | 218 | 1.7 | 1.7 | 0.00 | 0.00 | 0.00 | 77 | 1009.2 |
| 20260506101241 | 64 | 206 | 0.9 | 1.7 | 0.00 | 0.00 | 0.00 | 77 | 1009.3 |
| 20260506100739 | 64 | 219 | 1.7 | 2.6 | 0.00 | 0.00 | 0.00 | 78 | 1009.2 |
| 20260506100237 | 63 | 191 | 2.6 | 4.3 | 0.00 | 0.00 | 0.00 | 78 | 1008.9 |
| 20260506095736 | 63 | 202 | 0.0 | 0.0 | 0.00 | 0.00 | 0.00 | 78 | 1008.9 |
| 20260506095232 | 64 | 231 | 3.5 | 5.2 | 0.00 | 0.00 | 0.00 | 77 | 1008.8 |
| 20260506094729 | 64 | 217 | 1.7 | 1.7 | 0.00 | 0.00 | 0.00 | 77 | 1009.0 |
| 20260506094227 | 64 | 204 | 2.6 | 2.6 | 0.00 | 0.00 | 0.00 | 77 | 1009.0 |
| 20260506093726 | 64 | 239 | 0.9 | 0.9 | 0.00 | 0.00 | 0.00 | 77 | 1008.8 |
| 20260506093222 | 64 | 222 | 0.9 | 0.9 | 0.00 | 0.00 | 0.00 | 77 | 1009.0 |
| 20260506092720 | 64 | 185 | 0.9 | 1.7 | 0.00 | 0.00 | 0.00 | 77 | 1008.9 |
| 20260506092218 | 64 | 196 | 2.6 | 2.6 | 0.00 | 0.00 | 0.00 | 77 | 1009.2 |
| 20260506091715 | 64 | 161 | 0.9 | 0.9 | 0.00 | 0.00 | 0.00 | 77 | 1009.1 |
| 20260506091212 | 64 | 205 | 0.9 | 1.7 | 0.00 | 0.00 | 0.00 | 76 | 1009.2 |
| 20260506090710 | 64 | 205 | 2.6 | 2.6 | 0.00 | 0.00 | 0.00 | 76 | 1009.1 |
| 20260506090206 | 64 | 224 | 0.9 | 0.9 | 0.00 | 0.00 | 0.00 | 76 | 1008.9 |
| 20260506085704 | 64 | 212 | 3.5 | 4.3 | 0.00 | 0.00 | 0.00 | 76 | 1009.0 |
| 20260506085159 | 65 | 191 | 2.6 | 4.3 | 0.00 | 0.00 | 0.00 | 76 | 1009.0 |
| 20260506084656 | 65 | 250 | 0.9 | 0.9 | 0.00 | 0.00 | 0.00 | 76 | 1009.2 |
| 20260506084153 | 65 | 202 | 1.7 | 1.7 | 0.00 | 0.00 | 0.00 | 76 | 1009.2 |
| 20260506083650 | 65 | 204 | 0.9 | 1.7 | 0.00 | 0.00 | 0.00 | 76 | 1009.3 |
| 20260506083148 | 65 | 190 | 3.5 | 4.3 | 0.00 | 0.00 | 0.00 | 75 | 1009.1 |
| 20260506082644 | 65 | 191 | 2.6 | 7.0 | 0.00 | 0.00 | 0.00 | 75 | 1009.2 |
| 20260506082139 | 65 | 210 | 1.7 | 1.7 | 0.00 | 0.00 | 0.00 | 75 | 1009.1 |
| 20260506081638 | 65 | 297 | 2.6 | 2.6 | 0.00 | 0.00 | 0.00 | 75 | 1009.3 |
| 20260506081135 | 65 | 264 | 1.7 | 1.7 | 0.00 | 0.00 | 0.00 | 75 | 1009.2 |
| 20260506080633 | 65 | 206 | 0.0 | 0.0 | 0.00 | 0.00 | 0.00 | 75 | 1009.3 |
| 20260506080129 | 65 | 158 | 0.9 | 1.7 | 0.00 | 0.00 | 0.00 | 75 | 1009.3 |
| 20260506073113 | 66 | 186 | 3.5 | 5.2 | 0.00 | 0.00 | 0.00 | 74 | 1009.3 |
| 20260506072609 | 66 | 191 | 1.7 | 1.7 | 0.00 | 0.00 | 0.00 | 74 | 1009.5 |
| 20260506072108 | 66 | 223 | 1.7 | 1.7 | 0.00 | 0.00 | 0.00 | 74 | 1009.4 |
| 20260506071605 | 66 | 173 | 2.6 | 4.3 | 0.00 | 0.00 | 0.00 | 73 | 1009.4 |
| 20260506071102 | 66 | 199 | 1.7 | 2.6 | 0.00 | 0.00 | 0.00 | 73 | 1009.4 |
| 20260506070559 | 66 | 187 | 0.0 | 0.9 | 0.00 | 0.00 | 0.00 | 73 | 1009.3 |
| 20260506062034 | 66 | 189 | 0.9 | 0.9 | 0.00 | 0.00 | 0.00 | 72 | 1009.7 |
| 20260506061529 | 66 | 195 | 0.0 | 0.0 | 0.00 | 0.00 | 0.00 | 72 | 1009.7 |
| 20260506061027 | 66 | 170 | 0.9 | 1.7 | 0.00 | 0.00 | 0.00 | 71 | 1009.7 |
| 20260506060526 | 66 | 214 | 1.7 | 2.6 | 0.00 | 0.00 | 0.00 | 72 | 1009.7 |
| 20260506050954 | 65 | 189 | 0.9 | 1.7 | 0.00 | 0.00 | 0.00 | 70 | 1010.2 |
| 20260506050452 | 66 | 209 | 0.0 | 0.9 | 0.00 | 0.00 | 0.00 | 70 | 1010.2 |
| 20260506044942 | 66 | 197 | 2.6 | 2.6 | 0.00 | 0.00 | 0.00 | 68 | 1010.5 |
| 20260506044441 | 66 | 189 | 1.7 | 1.7 | 0.00 | 0.00 | 0.00 | 68 | 1010.1 |
| 20260506043937 | 66 | 184 | 0.9 | 0.9 | 0.00 | 0.00 | 0.00 | 68 | 1010.0 |
| 20260506043434 | 67 | 221 | 0.9 | 0.9 | 0.00 | 0.00 | 0.00 | 67 | 1010.2 |
| 20260506042932 | 67 | 195 | 0.9 | 0.9 | 0.00 | 0.00 | 0.00 | 67 | 1010.3 |
| 20260506042431 | 67 | 222 | 0.9 | 0.9 | 0.00 | 0.00 | 0.00 | 67 | 1010.1 |
| 20260506041929 | 67 | 169 | 1.7 | 1.7 | 0.00 | 0.00 | 0.00 | 67 | 1010.2 |
| 20260506041427 | 67 | 185 | 0.9 | 0.9 | 0.00 | 0.00 | 0.00 | 66 | 1010.5 |
| 20260506040923 | 67 | 144 | 0.9 | 1.7 | 0.00 | 0.00 | 0.00 | 66 | 1010.2 |
| 20260506040421 | 67 | 168 | 0.9 | 0.9 | 0.00 | 0.00 | 0.00 | 65 | 1010.1 |
| 20260506035917 | 67 | 194 | 0.0 | 0.9 | 0.00 | 0.00 | 0.00 | 65 | 1010.4 |
| 20260506035415 | 67 | 251 | 0.9 | 1.7 | 0.00 | 0.00 | 0.00 | 64 | 1010.1 |
| 20260506034911 | 67 | 194 | 0.9 | 1.7 | 0.00 | 0.00 | 0.00 | 64 | 1010.2 |
| 20260506034408 | 68 | 171 | 1.7 | 1.7 | 0.00 | 0.00 | 0.00 | 64 | 1010.3 |
| 20260506033905 | 68 | 203 | 2.6 | 5.2 | 0.00 | 0.00 | 0.00 | 63 | 1010.2 |
| 20260506033403 | 68 | 215 | 3.5 | 4.3 | 0.00 | 0.00 | 0.00 | 63 | 1010.3 |
| 20260506032859 | 68 | 180 | 1.7 | 2.6 | 0.00 | 0.00 | 0.00 | 63 | 1010.1 |
| 20260506032356 | 68 | 203 | 0.9 | 1.7 | 0.00 | 0.00 | 0.00 | 63 | 1010.4 |
| 20260506031853 | 68 | 191 | 1.7 | 1.7 | 0.00 | 0.00 | 0.00 | 62 | 1010.4 |
| 20260506031350 | 68 | 195 | 3.5 | 5.2 | 0.00 | 0.00 | 0.00 | 61 | 1010.2 |
| 20260506030848 | 68 | 249 | 2.6 | 2.6 | 0.00 | 0.00 | 0.00 | 61 | 1010.3 |
| 20260506030346 | 68 | 211 | 2.6 | 2.6 | 0.00 | 0.00 | 0.00 | 61 | 1010.0 |
| 20260506025842 | 68 | 192 | 0.9 | 1.7 | 0.00 | 0.00 | 0.00 | 61 | 1010.0 |
| 20260506025338 | 69 | 202 | 0.9 | 1.7 | 0.00 | 0.00 | 0.00 | 60 | 1009.8 |
| 20260506024836 | 69 | 192 | 2.6 | 2.6 | 0.00 | 0.00 | 0.00 | 60 | 1009.9 |
| 20260506024333 | 69 | 224 | 0.0 | 0.9 | 0.00 | 0.00 | 0.00 | 60 | 1009.9 |
| 20260506023829 | 69 | 222 | 2.6 | 2.6 | 0.00 | 0.00 | 0.00 | 59 | 1010.1 |
| 20260506023326 | 69 | 264 | 2.6 | 2.6 | 0.00 | 0.00 | 0.00 | 59 | 1010.0 |
| 20260506022822 | 69 | 152 | 2.6 | 6.1 | 0.00 | 0.00 | 0.00 | 59 | 1010.0 |
| 20260506022320 | 69 | 212 | 2.6 | 4.3 | 0.00 | 0.00 | 0.00 | 59 | 1010.2 |
| 20260506021818 | 69 | 213 | 2.6 | 6.1 | 0.00 | 0.00 | 0.00 | 59 | 1009.8 |